Faribault, MN

10:11 PM CDT on March 22, 2017 (GMT -0500)
Faribault Municipal

Weather History for KFBL - November, 2012

Change the Weather History Date:

Saturday, November 3, 2012

  Actual Average Record
Temperature  
Mean Temperature 38 °F -  
Max Temperature 42 °F 47 °F 75 °F (2008)
Min Temperature 33 °F 30 °F 10 °F (1991)
Degree Days  
Heating Degree Days 28    
Moisture  
Dew Point 30 °F    
Average Humidity 73    
Maximum Humidity 93    
Minimum Humidity 57    
Precipitation  
Precipitation 0.00 in - - ()
Sea Level Pressure  
Sea Level Pressure 30.18 in    
Wind  
Wind Speed 0 mph (WNW)    
Max Wind Speed 4 mph    
Max Gust Speed -    
Visibility 10 miles    
Events      
Averages and records for this station are not official NWS values.
T = Trace of Precipitation, MM = Missing Value Source: NWS Daily Summary

Daily Weather History Graph

Daily Weather History Graph

Search for Another Location

Airport or City:

Trip Planner

Search our weather history database for the weather conditions in past years. The results will help you decide how hot, cold, wet, or windy it might be!

Date:

Astronomy

Nov. 03, 2012 Rise Set
Actual Time 7:53 AM CDT 5:59 PM CDT
Civil Twilight 7:23 AM CDT 6:29 PM CDT
Nautical Twilight 6:48 AM CDT 7:04 PM CDT
Astronomical Twilight 6:14 AM CDT 7:37 PM CDT
Moon 9:37 PM CDT (11/3) 12:02 PM CDT (11/3)
Length of Visible Light 11h 06m
Length of Day
10h 05m
Waning Gibbous, 80% of the Moon is Illuminated
Nov 3
Waning Gibbous
Nov 6
Last Quarter
Nov 13
New
Nov 20
First Quarter
Nov 28
Full

Hourly Weather History & Observations

Time (CDT) Temp. Windchill Dew Point Humidity Pressure Visibility Wind Dir Wind Speed Gust Speed Precip Events Conditions
12:14 AM 35.6 °F - 28.4 °F 75% 30.15 in 10.0 mi Calm Calm - N/A   Overcast
12:34 AM 35.6 °F - 28.4 °F 75% 30.15 in 10.0 mi Calm Calm - N/A   Overcast
12:54 AM 35.6 °F - 28.4 °F 75% 30.16 in 10.0 mi Calm Calm - N/A   Overcast
1:14 AM 35.6 °F - 28.4 °F 75% 30.16 in 10.0 mi Calm Calm - N/A   Overcast
1:34 AM 35.6 °F - 28.4 °F 75% 30.15 in 10.0 mi Calm Calm - N/A   Overcast
1:54 AM 35.6 °F - 28.4 °F 75% 30.15 in 10.0 mi Calm Calm - N/A   Overcast
2:14 AM 35.6 °F - 28.4 °F 75% 30.15 in 10.0 mi Calm Calm - N/A   Overcast
2:34 AM 35.6 °F - 28.4 °F 75% 30.15 in 10.0 mi Calm Calm - N/A   Overcast
2:54 AM 35.6 °F - 28.4 °F 75% 30.15 in 10.0 mi Calm Calm - N/A   Overcast
3:13 AM 35.6 °F - 28.4 °F 75% 30.15 in 10.0 mi Calm Calm - N/A   Overcast
3:34 AM 35.6 °F - 28.4 °F 75% 30.15 in 10.0 mi Calm Calm - N/A   Overcast
3:54 AM 35.6 °F - 28.4 °F 75% 30.14 in 10.0 mi Calm Calm - N/A   Overcast
4:14 AM 35.6 °F - 28.4 °F 75% 30.14 in 10.0 mi Calm Calm - N/A   Overcast
4:34 AM 35.6 °F - 28.4 °F 75% 30.15 in 10.0 mi Calm Calm - N/A   Overcast
4:54 AM 35.6 °F - 30.2 °F 81% 30.15 in 10.0 mi Calm Calm - N/A   Overcast
5:14 AM 35.6 °F - 30.2 °F 81% 30.15 in 10.0 mi Calm Calm - N/A   Overcast
5:34 AM 35.6 °F - 30.2 °F 81% 30.16 in 10.0 mi Calm Calm - N/A   Overcast
5:54 AM 35.6 °F - 30.2 °F 81% 30.16 in 10.0 mi Calm Calm - N/A   Overcast
6:13 AM 35.6 °F - 30.2 °F 81% 30.17 in 10.0 mi Calm Calm - N/A   Overcast
6:34 AM 35.6 °F - 30.2 °F 81% 30.17 in 10.0 mi Calm Calm - N/A   Overcast
6:54 AM 35.6 °F - 30.2 °F 81% 30.17 in 10.0 mi Calm Calm - N/A   Overcast
7:14 AM 35.6 °F - 30.2 °F 81% 30.17 in 10.0 mi Calm Calm - N/A   Overcast
7:34 AM 33.8 °F - 30.2 °F 87% 30.18 in 10.0 mi Calm Calm - N/A   Overcast
7:54 AM 33.8 °F - 30.2 °F 87% 30.18 in 10.0 mi Calm Calm - N/A   Overcast
8:14 AM 35.6 °F - 30.2 °F 81% 30.18 in 10.0 mi Calm Calm - N/A   Overcast
8:33 AM 35.6 °F - 30.2 °F 81% 30.19 in 10.0 mi Calm Calm - N/A   Overcast
8:54 AM 35.6 °F - 30.2 °F 81% 30.19 in 10.0 mi Calm Calm - N/A   Overcast
9:14 AM 35.6 °F - 30.2 °F 81% 30.20 in 10.0 mi Calm Calm - N/A   Overcast
9:34 AM 37.4 °F - 30.2 °F 75% 30.20 in 10.0 mi Calm Calm - N/A   Overcast
9:54 AM 37.4 °F - 30.2 °F 75% 30.21 in 10.0 mi Calm Calm - N/A   Overcast
10:13 AM 37.4 °F - 30.2 °F 75% 30.21 in 10.0 mi Calm Calm - N/A   Overcast
10:32 AM 37.4 °F - 30.2 °F 75% 30.20 in 10.0 mi Calm Calm - N/A   Overcast
10:53 AM 37.4 °F - 30.2 °F 75% 30.20 in 10.0 mi Calm Calm - N/A   Overcast
11:14 AM 39.2 °F - 30.2 °F 70% 30.20 in 10.0 mi Calm Calm - N/A   Overcast
11:34 AM 39.2 °F - 30.2 °F 70% 30.21 in 10.0 mi Calm Calm - N/A   Overcast
11:53 AM 39.2 °F - 30.2 °F 70% 30.20 in 10.0 mi Calm Calm - N/A   Overcast
12:14 PM 39.2 °F - 30.2 °F 70% 30.21 in 10.0 mi Calm Calm - N/A   Overcast
12:34 PM 41.0 °F - 28.4 °F 61% 30.21 in 10.0 mi Calm Calm - N/A   Overcast
12:53 PM 41.0 °F - 28.4 °F 61% 30.21 in 10.0 mi Calm Calm - N/A   Overcast
1:14 PM 42.8 °F - 30.2 °F 61% 30.20 in 10.0 mi Calm Calm - N/A   Overcast
1:34 PM 42.8 °F - 30.2 °F 61% 30.20 in 10.0 mi Calm Calm - N/A   Overcast
1:53 PM 42.8 °F - 30.2 °F 61% 30.19 in 10.0 mi Calm Calm - N/A   Overcast
2:14 PM 42.8 °F - 28.4 °F 57% 30.19 in 10.0 mi Calm Calm - N/A   Overcast
2:34 PM 42.8 °F - 28.4 °F 57% 30.20 in 10.0 mi Calm Calm - N/A   Overcast
2:53 PM 42.8 °F - 28.4 °F 57% 30.20 in 10.0 mi Calm Calm - N/A   Overcast
3:14 PM 42.8 °F - 28.4 °F 57% 30.19 in 10.0 mi Calm Calm - N/A   Overcast
3:34 PM 42.8 °F - 28.4 °F 57% 30.19 in 10.0 mi Calm Calm - N/A   Overcast
3:53 PM 42.8 °F - 30.2 °F 61% 30.19 in 10.0 mi Calm Calm - N/A   Overcast
4:14 PM 42.8 °F - 30.2 °F 61% 30.19 in 10.0 mi Calm Calm - N/A   Overcast
4:34 PM 42.8 °F - 30.2 °F 61% 30.19 in 10.0 mi Calm Calm - N/A   Overcast
4:53 PM 42.8 °F - 30.2 °F 61% 30.18 in 10.0 mi Calm Calm - N/A   Overcast
5:14 PM 42.8 °F 41.1 °F 30.2 °F 61% 30.19 in 10.0 mi WSW 3.5 mph - N/A   Overcast
5:33 PM 42.8 °F - 30.2 °F 61% 30.18 in 10.0 mi Calm Calm - N/A   Overcast
5:54 PM 42.8 °F - 30.2 °F 61% 30.18 in 10.0 mi Calm Calm - N/A   Overcast
6:14 PM 42.8 °F - 30.2 °F 61% 30.18 in 10.0 mi Calm Calm - N/A   Overcast
6:34 PM 41.0 °F - 30.2 °F 65% 30.19 in 10.0 mi Calm Calm - N/A   Overcast
6:54 PM 39.2 °F - 30.2 °F 70% 30.19 in 10.0 mi Calm Calm - N/A   Overcast
7:14 PM 39.2 °F - 30.2 °F 70% 30.20 in 10.0 mi Calm Calm - N/A   Overcast
7:34 PM 39.2 °F - 30.2 °F 70% 30.20 in 10.0 mi Calm Calm - N/A   Overcast
7:53 PM 39.2 °F - 30.2 °F 70% 30.20 in 10.0 mi Calm Calm - N/A   Overcast
8:14 PM 39.2 °F - 30.2 °F 70% 30.20 in 10.0 mi Calm Calm - N/A   Overcast
8:34 PM 39.2 °F - 30.2 °F 70% 30.19 in 10.0 mi Calm Calm - N/A   Overcast
8:54 PM 37.4 °F - 30.2 °F 75% 30.20 in 10.0 mi Calm Calm - N/A   Mostly Cloudy
9:14 PM 37.4 °F - 30.2 °F 75% 30.19 in 10.0 mi Calm Calm - N/A   Mostly Cloudy
9:34 PM 37.4 °F - 30.2 °F 75% 30.20 in 10.0 mi Calm Calm - N/A   Overcast
9:54 PM 37.4 °F - 30.2 °F 75% 30.20 in 10.0 mi Calm Calm - N/A   Overcast
10:14 PM 37.4 °F - 32.0 °F 81% 30.21 in 10.0 mi Calm Calm - N/A   Overcast
10:34 PM 37.4 °F 34.9 °F 33.8 °F 87% 30.21 in 10.0 mi NNW 3.5 mph - N/A   Light Drizzle
10:54 PM 37.4 °F - 32.0 °F 81% 30.21 in 10.0 mi Calm Calm - N/A   Light Drizzle
11:14 PM 37.4 °F - 33.8 °F 87% 30.21 in 10.0 mi Calm Calm - N/A   Light Drizzle
11:34 PM 37.4 °F - 33.8 °F 87% 30.22 in 10.0 mi Calm Calm - N/A   Drizzle
11:54 PM 37.4 °F - 35.6 °F 93% 30.22 in 10.0 mi Calm Calm - N/A   Light Drizzle